Regional Weather Roundup
Issued by NWS

Home | Current Version | Previous Version | Text Only | Print | Product List | Glossary On
Versions: 1 2 3 4 5 6 7 8 9 10 11 12 13 14 15 16 17 18 19 20 21 22 23 24 25 26 27
000
ASUS46 KSEW 302010
RWRWA

WASHINGTON REGIONAL WEATHER ROUNDUP
NATIONAL WEATHER SERVICE SEATTLE WA
100 PM PDT THU MAR 30 2017

NOTE:"FAIR" INDICATES FEW OR NO CLOUDS BELOW 12,000 FEET WITH NO
SIGNIFICANT WEATHER AND/OR OBSTRUCTIONS TO VISIBILITY.

WAZ507-509-555>559-302100-
SEATTLE, TACOMA, EVERETT, AND VICINITY

CITY           SKY/WX    TMP DP  RH WIND       PRES   REMARKS
EVERETT        CLOUDY    47  42  83 W6        30.22R
BOEING FIELD   CLOUDY    53  42  66 CALM      30.22S
RENTON         MOSUNNY   51  39  63 W6        30.22S
SEATAC AIRPORT MOSUNNY   52  41  66 SW8       30.22R
JBLM-MCCHORD   MOSUNNY   54  42  65 CALM      30.22R
PUYALLUP         N/A     54  41  62 SE7       30.22R
BREMERTON      CLOUDY    52  37  58 CALM      30.24S
JBLM-FT LEWIS  MOSUNNY   53  44  71 S5        30.21S
TACOMA NARROWS MOSUNNY   51  40  65 S6        30.23R
$$

WAZ001-503-506-510-514-515-302100-
NORTH INTERIOR

CITY           SKY/WX    TMP DP  RH WIND       PRES   REMARKS
BELLINGHAM     PTSUNNY   48  40  73 W7        30.21R
FRIDAY HARBOR  CLOUDY    52  39  61 E6        30.22R
EASTSOUND      PTSUNNY   48  39  71 N5        30.21R
PORT ANGELES   SUNNY     53  42  66 VRB7G17   30.21R
EDIZ HOOK      FAIR      52  44  74 NW10      30.22R
PORT TOWNSEND  FAIR      54  39  58 NW8G20    30.23R
NAS WHIDBEY    PTSUNNY   53  35  50 N7        30.26R
ARLINGTON      CLOUDY    50  36  57 N6        30.24R
BURLINGTON     PTSUNNY   48  41  76 NW3       30.23R
$$

WAZ020-022-039-040-504-511-512-302100-
SOUTHWEST INTERIOR

CITY           SKY/WX    TMP DP  RH WIND       PRES   REMARKS
SHELTON        PTSUNNY   54  41  61 NE3       30.18S
OLYMPIA        PTSUNNY   54  39  57 VRB5      30.21S
CHEHALIS       PTSUNNY   54  43  66 VRB6G14   30.22S
KELSO          LGT RAIN  52  42  69 NW9       30.25S
VANCOUVER      PTSUNNY   53  39  59 NW10      30.25S
SCAPPOOSE, OR  CLOUDY    53  41  63 NW7       30.24S
PORTLAND, OR   PTSUNNY   53  38  56 NW10      30.25F
$$

WAZ021-516-517-302100-
WASHINGTON COAST

CITY           SKY/WX    TMP DP  RH WIND       PRES   REMARKS
FORKS          CLOUDY    49  40  71 W12G22    30.24R
HOQUIAM        CLOUDY    51  42  71 W12G20    30.25R
ASTORIA, OR    MOSUNNY   52  42  69 NW14      30.27S
$$

WAZ019-023-024-040-567>569-302100-
CASCADE MOUNTAINS AND COLUMBIA GORGE

CITY           SKY/WX    TMP DP  RH WIND       PRES   REMARKS
STAMPEDE PASS  NOT AVBL
TROUTDALE, OR  PTSUNNY   52  42  69 VRB5      30.25S
THE DALLES, OR MOSUNNY   55  38  52 NW8G24    30.13R
$$

WAZ026-027-041>044-520-521-302100-
EAST SLOPES

CITY           SKY/WX    TMP DP  RH WIND       PRES   REMARKS
OMAK           MOSUNNY   57  32  38 N8        30.00R
WENATCHEE      SUNNY     55  24  30 NW28G37   30.01R
ELLENSBURG     SUNNY     52  30  43 NW36G45   30.03R
YAKIMA         SUNNY     59  28  30 NW26G38   30.05R
SUNNYSIDE ARPT PTCLDY    56  28  34 NW18G28   30.04R
$$

WAZ028-034-035-302100-
COLUMBIA BASIN

CITY           SKY/WX    TMP DP  RH WIND       PRES   REMARKS
EPHRATA        SUNNY     57  26  30 NW20G26   30.00R
MOSES LAKE     SUNNY     57  30  35 N15G26    30.01R
PASCO          PTSUNNY   59  29  31 N13       30.04R
HERMISTON, OR  MOSUNNY   59  35  40 W14G23    30.03F
$$

WAZ036>038-302100-
NORTHEAST WASHINGTON

CITY           SKY/WX    TMP DP  RH WIND       PRES   REMARKS
SPOKANE GEIGER PTSUNNY   46  35  65 CALM      29.96R
SPOKANE FELTS  CLOUDY    48  35  60 VRB3      29.96R
FAIRCHILD AFB  MOSUNNY   47  37  70 CALM      29.95R
COEURDALENE,ID CLOUDY    47  37  68 W9        29.96R
DEER PARK      PTSUNNY   48  37  65 S7        29.95R
$$

WAZ029>033-302100-
SOUTHEAST WASHINGTON

CITY           SKY/WX    TMP DP  RH WIND       PRES   REMARKS
PULLMAN        CLOUDY    44  34  67 W17       29.99R
LEWISTON, ID   CLOUDY    50  32  50 NW13G22   29.99R
WALLA WALLA    CLOUDY    50  37  61 S10       30.04S
PENDLETON, OR  PTSUNNY   50  35  56 W13       30.04R
$$




USA.gov is the U.S. government's official web portal to all federal, state and local government web resources and services.